Year,Month,Day,Hour,Minute,Value (Times are PST for temperature in C)
2006,08,19,00,13,11.60
2006,08,19,00,14,11.60
2006,08,19,00,15,11.60
2006,08,19,00,16,11.60
2006,08,19,00,17,11.60
2006,08,19,00,18,11.60
2006,08,19,00,19,11.60
2006,08,19,00,20,11.60
2006,08,19,00,21,11.60
2006,08,19,00,22,11.60
2006,08,19,00,23,11.60
2006,08,19,00,24,11.60
2006,08,19,00,25,11.60
2006,08,19,00,26,11.60
2006,08,19,00,27,11.60
2006,08,19,00,28,11.60
2006,08,19,00,29,11.60
2006,08,19,00,30,11.60
2006,08,19,00,31,11.60
2006,08,19,00,32,11.60
2006,08,19,00,33,11.60
2006,08,19,00,35,11.60
2006,08,19,00,36,11.60
2006,08,19,00,37,11.60
2006,08,19,00,38,11.60
2006,08,19,00,39,11.60
2006,08,19,00,40,11.60
2006,08,19,00,41,11.60
2006,08,19,00,42,11.60
2006,08,19,00,43,11.60
2006,08,19,00,44,11.60
2006,08,19,00,45,11.60
2006,08,19,00,46,11.60
2006,08,19,00,47,11.50
2006,08,19,00,48,11.50
2006,08,19,00,49,11.50
2006,08,19,00,51,11.50
2006,08,19,00,52,11.50
2006,08,19,00,53,11.50
2006,08,19,00,54,11.50
2006,08,19,00,55,11.50
2006,08,19,00,56,11.50
2006,08,19,00,57,11.50
2006,08,19,00,58,11.50
2006,08,19,00,59,11.50
2006,08,19,01,00,11.50
2006,08,19,01,01,11.50
2006,08,19,01,02,11.50
2006,08,19,01,03,11.50
2006,08,19,01,04,11.50
2006,08,19,01,05,11.50
2006,08,19,01,06,11.50
2006,08,19,01,07,11.50
2006,08,19,01,08,11.50
2006,08,19,01,10,11.50
2006,08,19,01,11,11.50
2006,08,19,01,12,11.50
2006,08,19,01,13,11.50
2006,08,19,01,14,11.50
2006,08,19,01,15,11.50
2006,08,19,01,16,11.50
2006,08,19,01,17,11.50
2006,08,19,01,18,11.50
2006,08,19,01,19,11.50
2006,08,19,01,20,11.50
2006,08,19,01,21,11.50
2006,08,19,01,22,11.70
2006,08,19,01,23,11.70
2006,08,19,01,24,11.70
2006,08,19,01,25,11.70
2006,08,19,01,26,11.60
2006,08,19,01,27,11.60
2006,08,19,01,28,11.60
2006,08,19,01,29,11.60
2006,08,19,01,30,11.60
2006,08,19,01,31,11.60
2006,08,19,01,32,11.60
2006,08,19,01,33,11.60
2006,08,19,01,35,11.60
2006,08,19,01,36,11.60
2006,08,19,01,37,11.60
2006,08,19,01,38,11.60
2006,08,19,01,39,11.60
2006,08,19,01,40,11.60
2006,08,19,01,41,11.60
2006,08,19,01,42,11.40
2006,08,19,01,44,11.40
2006,08,19,01,45,11.40
2006,08,19,01,46,11.40
2006,08,19,01,47,11.40
2006,08,19,01,48,11.40
2006,08,19,01,49,11.40
2006,08,19,01,50,11.40
2006,08,19,01,51,11.40
2006,08,19,01,52,11.40
2006,08,19,01,53,11.40
2006,08,19,01,54,11.40
2006,08,19,01,55,11.40
2006,08,19,01,56,11.50
2006,08,19,01,57,11.50
2006,08,19,01,58,11.50
2006,08,19,01,59,11.50
2006,08,19,02,00,11.50
2006,08,19,02,01,11.50
2006,08,19,02,02,11.50
2006,08,19,02,03,11.50
2006,08,19,02,04,11.50
2006,08,19,02,05,11.50
2006,08,19,02,06,11.50
2006,08,19,02,07,11.50
2006,08,19,02,08,11.50
2006,08,19,02,09,11.50
2006,08,19,02,10,11.50
2006,08,19,02,11,11.50
2006,08,19,02,12,11.50
2006,08,19,02,13,11.50
2006,08,19,02,14,11.50
2006,08,19,02,15,11.50
2006,08,19,02,16,11.40
2006,08,19,02,17,11.40
2006,08,19,02,18,11.40
2006,08,19,02,19,11.40
2006,08,19,02,20,11.40
2006,08,19,02,21,11.40
2006,08,19,02,22,11.40
2006,08,19,02,23,11.40
2006,08,19,02,24,11.40
2006,08,19,02,25,11.40
2006,08,19,02,26,11.40
2006,08,19,02,27,11.40
2006,08,19,02,28,11.40
2006,08,19,02,29,11.40
2006,08,19,02,30,11.40
2006,08,19,02,31,11.40
2006,08,19,02,32,11.40
2006,08,19,02,33,11.40
2006,08,19,02,34,11.40
2006,08,19,02,36,11.40
2006,08,19,02,37,11.40
2006,08,19,02,38,11.40
2006,08,19,02,39,11.40
2006,08,19,02,40,11.40
2006,08,19,02,41,11.40
2006,08,19,02,42,11.40
2006,08,19,02,43,11.40
2006,08,19,02,44,11.40
2006,08,19,02,45,11.40
2006,08,19,02,46,11.40
2006,08,19,02,47,11.40
2006,08,19,02,48,11.40
2006,08,19,02,49,11.40
2006,08,19,02,50,11.40
2006,08,19,02,51,11.40
2006,08,19,02,52,11.40
2006,08,19,02,53,11.40
2006,08,19,02,54,11.40
2006,08,19,02,55,11.40
2006,08,19,02,56,11.40
2006,08,19,02,57,11.40
2006,08,19,02,58,11.40
2006,08,19,02,59,11.40
2006,08,19,03,00,11.40
2006,08,19,03,01,11.40
2006,08,19,03,02,11.40
2006,08,19,03,03,11.40
2006,08,19,03,04,11.40
2006,08,19,03,06,11.40
2006,08,19,03,08,11.40
2006,08,19,03,09,11.20
2006,08,19,03,10,11.20
2006,08,19,03,11,11.20
2006,08,19,03,12,11.20
2006,08,19,03,13,11.20
2006,08,19,03,14,11.20
2006,08,19,03,15,11.20
2006,08,19,03,16,11.20
2006,08,19,03,17,11.20
2006,08,19,03,18,11.20
2006,08,19,03,19,11.20
2006,08,19,03,20,11.20
2006,08,19,03,21,11.20
2006,08,19,03,22,11.20
2006,08,19,03,23,11.20
2006,08,19,03,24,11.20
2006,08,19,03,25,11.20
2006,08,19,03,26,11.20
2006,08,19,03,27,11.20
2006,08,19,03,28,11.20
2006,08,19,03,29,11.20
2006,08,19,03,30,11.20
2006,08,19,03,31,11.20
2006,08,19,03,32,11.20
2006,08,19,03,33,11.20
2006,08,19,03,34,11.20
2006,08,19,03,35,11.20
2006,08,19,03,36,11.20
2006,08,19,03,37,11.20
2006,08,19,03,38,11.20
2006,08,19,03,39,11.20
2006,08,19,03,40,11.20
2006,08,19,03,41,11.20
2006,08,19,03,42,11.20
2006,08,19,03,43,11.20
2006,08,19,03,44,11.20
2006,08,19,03,45,11.20
2006,08,19,03,46,11.20
2006,08,19,03,47,11.20
2006,08,19,03,48,11.20
2006,08,19,03,49,11.20
2006,08,19,03,50,11.20
2006,08,19,03,51,11.20
2006,08,19,03,52,11.20
2006,08,19,03,53,11.20
2006,08,19,03,54,11.20
2006,08,19,03,55,11.20
2006,08,19,03,56,11.20
2006,08,19,03,57,11.20
2006,08,19,03,58,11.20
2006,08,19,04,00,11.20
2006,08,19,04,01,11.20
2006,08,19,04,02,11.20
2006,08,19,04,03,11.20
2006,08,19,04,04,11.20
2006,08,19,04,05,11.20
2006,08,19,04,06,11.20
2006,08,19,04,08,11.20
2006,08,19,04,09,11.20
2006,08,19,04,10,11.20
2006,08,19,04,12,11.00
2006,08,19,04,13,11.00
2006,08,19,04,14,11.00
2006,08,19,04,16,11.00
2006,08,19,04,17,11.10
2006,08,19,04,18,11.10
2006,08,19,04,19,11.10
2006,08,19,04,20,11.10
2006,08,19,04,21,11.10
2006,08,19,04,22,11.10
2006,08,19,04,23,11.10
2006,08,19,04,24,11.10
2006,08,19,04,25,11.10
2006,08,19,04,26,11.10
2006,08,19,04,27,11.10
2006,08,19,04,28,11.10
2006,08,19,04,29,11.10
2006,08,19,04,30,11.10
2006,08,19,04,32,11.10
2006,08,19,04,33,11.10
2006,08,19,04,34,11.10
2006,08,19,04,35,11.10
2006,08,19,04,36,11.10
2006,08,19,04,37,11.10
2006,08,19,04,38,11.10
2006,08,19,04,39,11.10
2006,08,19,04,41,11.10
2006,08,19,04,42,11.10
2006,08,19,04,43,11.10
2006,08,19,04,44,11.10
2006,08,19,04,45,11.10
2006,08,19,04,46,11.10
2006,08,19,04,47,11.10
2006,08,19,04,48,11.10
2006,08,19,04,49,11.10
2006,08,19,04,50,11.10
2006,08,19,04,51,11.00
2006,08,19,04,52,11.00
2006,08,19,04,53,11.00
2006,08,19,04,54,11.00
2006,08,19,04,55,11.00
2006,08,19,04,56,11.00
2006,08,19,04,57,11.00
2006,08,19,04,58,11.00
2006,08,19,04,59,11.00
2006,08,19,05,00,11.00
2006,08,19,05,01,11.00
2006,08,19,05,02,11.00
2006,08,19,05,03,11.00
2006,08,19,05,04,11.00
2006,08,19,05,05,11.00
2006,08,19,05,06,10.80
2006,08,19,05,07,10.80
2006,08,19,05,09,10.80
2006,08,19,05,10,10.80
2006,08,19,05,11,10.80
2006,08,19,05,12,10.80
2006,08,19,05,13,10.80
2006,08,19,05,14,10.80
2006,08,19,05,15,10.80
2006,08,19,05,16,10.80
2006,08,19,05,17,10.80
2006,08,19,05,18,10.80
2006,08,19,05,19,10.80
2006,08,19,05,20,11.00
2006,08,19,05,21,11.00
2006,08,19,05,22,11.00
2006,08,19,05,23,11.00
2006,08,19,05,24,11.00
2006,08,19,05,25,11.00
2006,08,19,05,26,11.00
2006,08,19,05,27,11.00
2006,08,19,05,28,11.00
2006,08,19,05,29,11.00
2006,08,19,05,30,11.00
2006,08,19,05,31,11.00
2006,08,19,05,32,11.00
2006,08,19,05,34,11.00
2006,08,19,05,35,11.00
2006,08,19,05,36,11.00
2006,08,19,05,37,11.00
2006,08,19,05,38,11.00
2006,08,19,05,39,11.00
2006,08,19,05,40,11.00
2006,08,19,05,41,11.10
2006,08,19,05,42,11.10
2006,08,19,05,43,11.10
2006,08,19,05,44,11.10
2006,08,19,05,45,11.10
2006,08,19,05,46,11.10
2006,08,19,05,47,11.10
2006,08,19,05,48,11.10
2006,08,19,05,49,11.10
2006,08,19,05,50,11.10
2006,08,19,05,51,11.10
2006,08,19,05,52,11.10
2006,08,19,05,53,11.10
2006,08,19,05,54,11.00
2006,08,19,05,55,11.00
2006,08,19,05,56,11.00
2006,08,19,05,57,11.00
2006,08,19,05,58,11.00
2006,08,19,05,59,11.10
2006,08,19,06,00,11.10
2006,08,19,06,01,11.10
2006,08,19,06,02,11.10
2006,08,19,06,03,11.10
2006,08,19,06,04,11.10
2006,08,19,06,05,11.10
2006,08,19,06,07,11.10
2006,08,19,06,08,11.10
2006,08,19,06,09,11.10
2006,08,19,06,10,11.10
2006,08,19,06,11,11.10
2006,08,19,06,12,11.10
2006,08,19,06,13,11.10
2006,08,19,06,14,11.30
2006,08,19,06,15,11.30
2006,08,19,06,16,11.30
2006,08,19,06,17,11.30
2006,08,19,06,18,11.30
2006,08,19,06,19,11.30
2006,08,19,06,20,11.30
2006,08,19,06,21,11.30
2006,08,19,06,22,11.30
2006,08,19,06,23,11.30
2006,08,19,06,24,11.30
2006,08,19,06,25,11.30
2006,08,19,06,26,11.30
2006,08,19,06,27,11.30
2006,08,19,06,28,11.60
2006,08,19,06,29,11.60
2006,08,19,06,30,11.60
2006,08,19,06,32,11.60
2006,08,19,06,33,11.60
2006,08,19,06,34,11.60
2006,08,19,06,36,11.60
2006,08,19,06,37,11.60
2006,08,19,06,38,11.60
2006,08,19,06,39,11.60
2006,08,19,06,40,11.60
2006,08,19,06,42,11.60
2006,08,19,06,43,11.60
2006,08,19,06,44,11.60
2006,08,19,06,45,11.60
2006,08,19,06,46,11.60
2006,08,19,06,47,11.60
2006,08,19,06,48,11.90
2006,08,19,06,49,11.90
2006,08,19,06,50,11.90
2006,08,19,06,51,11.90
2006,08,19,06,52,11.90
2006,08,19,06,53,11.90
2006,08,19,06,54,11.90
2006,08,19,06,55,11.90
2006,08,19,06,56,11.90
2006,08,19,06,57,11.90
2006,08,19,06,58,11.90
2006,08,19,06,59,11.90
2006,08,19,07,00,11.90
2006,08,19,07,02,12.10
2006,08,19,07,03,12.10
2006,08,19,07,04,12.10
2006,08,19,07,05,12.10
2006,08,19,07,06,12.10
2006,08,19,07,07,12.20
2006,08,19,07,08,12.20
2006,08,19,07,09,12.20
2006,08,19,07,10,12.20
2006,08,19,07,12,12.20
2006,08,19,07,13,12.20
2006,08,19,07,14,12.20
2006,08,19,07,15,12.20
2006,08,19,07,16,12.20
2006,08,19,07,17,12.20
2006,08,19,07,18,12.20
2006,08,19,07,19,12.20
2006,08,19,07,20,12.20
2006,08,19,07,21,12.20
2006,08,19,07,22,12.90
2006,08,19,07,23,12.90
2006,08,19,07,24,12.90
2006,08,19,07,25,12.90
2006,08,19,07,26,12.90
2006,08,19,07,27,12.90
2006,08,19,07,28,12.90
2006,08,19,07,29,12.90
2006,08,19,07,30,12.90
2006,08,19,07,31,12.90
2006,08,19,07,32,12.90
2006,08,19,07,34,12.90
2006,08,19,07,36,12.70
2006,08,19,07,37,12.70
2006,08,19,07,38,12.70
2006,08,19,07,39,12.70
2006,08,19,07,40,12.70
2006,08,19,07,41,12.90
2006,08,19,07,42,12.90
2006,08,19,07,43,12.90
2006,08,19,07,44,12.90
2006,08,19,07,45,12.90
2006,08,19,07,46,12.90
2006,08,19,07,48,12.90
2006,08,19,07,49,12.90
2006,08,19,07,50,12.90
2006,08,19,07,51,12.90
2006,08,19,07,53,12.90
2006,08,19,07,54,12.90
2006,08,19,07,55,12.90
2006,08,19,07,56,12.60
2006,08,19,07,57,12.60
2006,08,19,07,58,12.60
2006,08,19,07,59,12.60
2006,08,19,08,00,12.60
2006,08,19,08,01,12.60
2006,08,19,08,02,12.60
2006,08,19,08,03,12.60
2006,08,19,08,04,12.60
2006,08,19,08,05,12.60
2006,08,19,08,06,12.60
2006,08,19,08,07,12.60
2006,08,19,08,08,12.60
2006,08,19,08,09,12.60
2006,08,19,08,10,12.40
2006,08,19,08,11,12.40
2006,08,19,08,12,12.40
2006,08,19,08,13,12.40
2006,08,19,08,14,12.40
2006,08,19,08,15,12.40
2006,08,19,08,16,12.40
2006,08,19,08,17,12.40
2006,08,19,08,18,12.40
2006,08,19,08,19,12.40
2006,08,19,08,20,12.40
2006,08,19,08,21,12.40
2006,08,19,08,22,12.40
2006,08,19,08,23,12.40
2006,08,19,08,24,12.40
2006,08,19,08,25,12.40
2006,08,19,08,26,12.40
2006,08,19,08,27,12.40
2006,08,19,08,28,12.40
2006,08,19,08,29,12.40
2006,08,19,08,31,13.30
2006,08,19,08,32,13.30
2006,08,19,08,33,13.30
2006,08,19,08,35,13.30
2006,08,19,08,36,13.30
2006,08,19,08,37,13.30
2006,08,19,08,38,13.30
2006,08,19,08,39,13.30
2006,08,19,08,40,13.30
2006,08,19,08,42,13.30
2006,08,19,08,43,13.30
2006,08,19,08,44,14.00
2006,08,19,08,45,14.00
2006,08,19,08,46,14.00
2006,08,19,08,47,14.00
2006,08,19,08,48,14.00
2006,08,19,08,50,14.30
2006,08,19,08,51,14.30
2006,08,19,08,52,14.30
2006,08,19,08,53,14.30
2006,08,19,08,54,14.30
2006,08,19,08,55,14.30
2006,08,19,08,56,14.30
2006,08,19,08,57,14.30
2006,08,19,08,58,14.30
2006,08,19,08,59,14.30
2006,08,19,09,00,14.30
2006,08,19,09,01,14.30
2006,08,19,09,02,14.30
2006,08,19,09,03,14.30
2006,08,19,09,04,14.40
2006,08,19,09,05,14.40
2006,08,19,09,06,14.40
2006,08,19,09,08,14.40
2006,08,19,09,09,14.40
2006,08,19,09,10,14.40
2006,08,19,09,11,14.40
2006,08,19,09,12,14.40
2006,08,19,09,13,14.40
2006,08,19,09,14,14.40
2006,08,19,09,16,14.40
2006,08,19,09,17,14.40
2006,08,19,09,18,14.80
2006,08,19,09,19,14.80
2006,08,19,09,21,14.80
2006,08,19,09,22,14.80
2006,08,19,09,23,14.80
2006,08,19,09,24,14.40
2006,08,19,09,25,14.40
2006,08,19,09,26,14.40
2006,08,19,09,27,14.40
2006,08,19,09,28,14.40
2006,08,19,09,29,14.40
2006,08,19,09,30,14.40
2006,08,19,09,31,14.40
2006,08,19,09,32,14.40
2006,08,19,09,33,14.40
2006,08,19,09,34,14.40
2006,08,19,09,35,14.40
2006,08,19,09,36,14.40
2006,08,19,09,37,14.40
2006,08,19,09,38,14.40
2006,08,19,09,39,14.40
2006,08,19,09,40,14.40
2006,08,19,09,42,14.40
2006,08,19,09,43,14.40
2006,08,19,09,44,14.40
2006,08,19,09,45,14.40
2006,08,19,09,46,14.40
2006,08,19,09,47,14.40
2006,08,19,09,48,14.40
2006,08,19,09,49,14.40
2006,08,19,09,50,14.40
2006,08,19,09,51,14.40
2006,08,19,09,52,14.90
2006,08,19,09,53,14.90
2006,08,19,09,54,14.90
2006,08,19,09,55,14.90
2006,08,19,09,56,14.90
2006,08,19,09,57,15.10
2006,08,19,09,58,15.10
2006,08,19,09,59,15.10
2006,08,19,10,00,15.10
2006,08,19,10,01,15.10
2006,08,19,10,02,15.10
2006,08,19,10,03,15.10
2006,08,19,10,04,15.10
2006,08,19,10,05,15.10
2006,08,19,10,06,15.10
2006,08,19,10,07,15.10
2006,08,19,10,08,15.10
2006,08,19,10,09,15.10
2006,08,19,10,10,15.10
2006,08,19,10,11,15.10
2006,08,19,10,12,15.10
2006,08,19,10,13,16.20
2006,08,19,10,15,16.20
2006,08,19,10,16,16.20
2006,08,19,10,17,16.20
2006,08,19,10,18,16.20
2006,08,19,10,19,16.20
2006,08,19,10,20,16.20
2006,08,19,10,21,16.20
2006,08,19,10,22,16.20
2006,08,19,10,23,16.20
2006,08,19,10,24,16.20
2006,08,19,10,25,16.20
2006,08,19,10,26,15.10
2006,08,19,10,27,15.10
2006,08,19,10,28,15.10
2006,08,19,10,29,15.10
2006,08,19,10,30,15.10
2006,08,19,10,31,15.20
2006,08,19,10,32,15.20
2006,08,19,10,33,15.20
2006,08,19,10,34,15.20
2006,08,19,10,35,15.20
2006,08,19,10,36,15.20
2006,08,19,10,37,15.20
2006,08,19,10,38,15.20
2006,08,19,10,39,15.20
2006,08,19,10,40,15.20
2006,08,19,10,41,15.20
2006,08,19,10,43,15.20
2006,08,19,10,44,15.20
2006,08,19,10,46,15.20
2006,08,19,10,48,15.80
2006,08,19,10,49,15.80
2006,08,19,10,50,15.80
2006,08,19,10,51,15.80
2006,08,19,10,52,15.80
2006,08,19,10,53,15.80
2006,08,19,10,54,15.80
2006,08,19,10,55,15.80
2006,08,19,10,56,15.80
2006,08,19,10,57,15.80
2006,08,19,10,58,15.80
2006,08,19,10,59,15.80
2006,08,19,11,00,15.90
2006,08,19,11,01,15.90
2006,08,19,11,03,15.90
2006,08,19,11,04,15.90
2006,08,19,11,06,15.80
2006,08,19,11,07,15.80
2006,08,19,11,08,15.80
2006,08,19,11,09,15.80
2006,08,19,11,11,15.80
2006,08,19,11,12,15.80
2006,08,19,11,13,15.80
2006,08,19,11,14,15.80
2006,08,19,11,15,15.80
2006,08,19,11,16,15.80
2006,08,19,11,17,15.80
2006,08,19,11,18,15.80
2006,08,19,11,19,15.80
2006,08,19,11,20,15.80
2006,08,19,11,21,15.80
2006,08,19,11,22,15.90
2006,08,19,11,23,15.90
2006,08,19,11,24,15.90
2006,08,19,11,25,15.90
2006,08,19,11,26,15.90
2006,08,19,11,27,15.90
2006,08,19,11,28,15.90
2006,08,19,11,29,15.90
2006,08,19,11,30,15.90
2006,08,19,11,31,15.90
2006,08,19,11,32,15.90
2006,08,19,11,33,15.90
2006,08,19,11,34,16.10
2006,08,19,11,35,16.10
2006,08,19,11,36,16.10
2006,08,19,11,37,16.10
2006,08,19,11,38,16.10
2006,08,19,11,39,16.20
2006,08,19,11,40,16.20
2006,08,19,11,41,16.20
2006,08,19,11,42,16.20
2006,08,19,11,43,16.20
2006,08,19,11,44,16.20
2006,08,19,11,45,16.20
2006,08,19,11,46,16.20
2006,08,19,11,47,16.20
2006,08,19,11,48,16.20
2006,08,19,11,49,16.20
2006,08,19,11,50,16.20
2006,08,19,11,52,16.20
2006,08,19,11,53,16.20
2006,08,19,11,54,16.20
2006,08,19,11,55,16.90
2006,08,19,11,56,16.90
2006,08,19,11,57,16.90
2006,08,19,11,58,16.90
2006,08,19,11,59,16.90
2006,08,19,12,00,16.90
2006,08,19,12,01,16.90
2006,08,19,12,02,16.90
2006,08,19,12,03,16.90
2006,08,19,12,04,16.90
2006,08,19,12,05,16.90
2006,08,19,12,06,16.90
2006,08,19,12,07,16.90
2006,08,19,12,08,16.90
2006,08,19,12,09,16.90
2006,08,19,12,10,16.90
2006,08,19,12,11,16.90
2006,08,19,12,12,16.90
2006,08,19,12,13,17.10
2006,08,19,12,14,17.10
2006,08,19,12,15,17.10
2006,08,19,12,16,17.10
2006,08,19,12,17,17.10
2006,08,19,12,18,17.10
2006,08,19,12,19,17.10
2006,08,19,12,20,17.10
2006,08,19,12,21,17.10
2006,08,19,12,22,17.10
2006,08,19,12,23,17.10
2006,08,19,12,24,17.10
2006,08,19,12,25,17.10
2006,08,19,12,26,17.10
2006,08,19,12,27,17.10
2006,08,19,12,28,17.70
2006,08,19,12,29,17.70
2006,08,19,12,30,17.70
2006,08,19,12,31,17.70
2006,08,19,12,32,17.70
2006,08,19,12,33,17.70
2006,08,19,12,34,17.70
2006,08,19,12,36,17.70
2006,08,19,12,37,17.70
2006,08,19,12,38,17.70
2006,08,19,12,39,17.70
2006,08,19,12,40,17.70
2006,08,19,12,41,17.70
2006,08,19,12,42,17.60
2006,08,19,12,43,17.60
2006,08,19,12,44,17.60
2006,08,19,12,45,17.60
2006,08,19,12,46,17.60
2006,08,19,12,47,17.70
2006,08,19,12,48,17.70
2006,08,19,12,49,17.70
2006,08,19,12,50,17.70
2006,08,19,12,51,17.70
2006,08,19,12,52,17.70
2006,08,19,12,53,17.70
2006,08,19,12,54,17.70
2006,08,19,12,55,17.70
2006,08,19,12,57,17.70
2006,08,19,12,58,17.70
2006,08,19,12,59,17.70
2006,08,19,13,00,17.70
2006,08,19,13,01,17.70
2006,08,19,13,02,17.70
2006,08,19,13,03,17.70
2006,08,19,13,05,17.70
2006,08,19,13,06,17.70
2006,08,19,13,07,17.70
2006,08,19,13,08,17.70
2006,08,19,13,09,17.70
2006,08,19,13,10,17.70
2006,08,19,13,11,17.70
2006,08,19,13,12,17.70
2006,08,19,13,13,17.70
2006,08,19,13,14,17.70
2006,08,19,13,16,17.70
2006,08,19,13,17,17.90
2006,08,19,13,18,17.90
2006,08,19,13,20,17.90
2006,08,19,13,21,18.40
2006,08,19,13,22,18.40
2006,08,19,13,23,18.40
2006,08,19,13,25,18.40
2006,08,19,13,26,18.40
2006,08,19,13,27,18.40
2006,08,19,13,28,18.40
2006,08,19,13,29,18.40
2006,08,19,13,30,18.40
2006,08,19,13,31,18.40
2006,08,19,13,32,18.40
2006,08,19,13,33,18.40
2006,08,19,13,34,18.40
2006,08,19,13,35,18.40
2006,08,19,13,37,17.70
2006,08,19,13,38,17.70
2006,08,19,13,39,17.70
2006,08,19,13,40,17.70
2006,08,19,13,41,17.70
2006,08,19,13,42,17.70
2006,08,19,13,43,17.70
2006,08,19,13,44,17.70
2006,08,19,13,45,17.70
2006,08,19,13,46,17.70
2006,08,19,13,47,17.70
2006,08,19,13,48,17.70
2006,08,19,13,49,17.70
2006,08,19,13,50,17.00
2006,08,19,13,51,17.00
2006,08,19,13,52,17.00
2006,08,19,13,53,17.00
2006,08,19,13,54,17.00
2006,08,19,13,55,17.10
2006,08,19,13,56,17.10
2006,08,19,13,58,17.10
2006,08,19,13,59,17.10
2006,08,19,14,01,17.10
2006,08,19,14,02,17.10
2006,08,19,14,03,17.10
2006,08,19,14,04,17.10
2006,08,19,14,06,17.10
2006,08,19,14,08,17.10
2006,08,19,14,09,17.10
2006,08,19,14,10,17.10
2006,08,19,14,11,17.20
2006,08,19,14,13,17.20
2006,08,19,14,14,17.20
2006,08,19,14,15,17.20
2006,08,19,14,16,17.20
2006,08,19,14,17,17.20
2006,08,19,14,18,17.20
2006,08,19,14,19,17.20
2006,08,19,14,20,17.20
2006,08,19,14,21,17.20
2006,08,19,14,23,17.20
2006,08,19,14,24,17.00
2006,08,19,14,25,17.00
2006,08,19,14,26,17.00
2006,08,19,14,27,17.00
2006,08,19,14,29,17.30
2006,08,19,14,30,17.30
2006,08,19,14,31,17.30
2006,08,19,14,33,17.30
2006,08,19,14,34,17.30
2006,08,19,14,35,17.30
2006,08,19,14,36,17.30
2006,08,19,14,37,17.30
2006,08,19,14,38,17.30
2006,08,19,14,39,17.30
2006,08,19,14,40,17.30
2006,08,19,14,41,17.30
2006,08,19,14,42,17.30
2006,08,19,14,43,17.30
2006,08,19,14,44,17.30
2006,08,19,14,45,17.70
2006,08,19,14,46,17.70
2006,08,19,14,47,17.70
2006,08,19,14,48,17.70
2006,08,19,14,49,17.70
2006,08,19,14,50,17.70
2006,08,19,14,51,17.70
2006,08,19,14,52,17.70
2006,08,19,14,53,17.70
2006,08,19,14,55,17.70
2006,08,19,14,56,17.70
2006,08,19,14,57,17.70
2006,08,19,14,58,17.30
2006,08,19,14,59,17.30
2006,08,19,15,00,17.30
2006,08,19,15,01,17.30
2006,08,19,15,02,17.30
2006,08,19,15,03,17.30
2006,08,19,15,04,17.30
2006,08,19,15,05,17.30
2006,08,19,15,06,17.30
2006,08,19,15,07,17.30
2006,08,19,15,08,17.30
2006,08,19,15,09,17.30
2006,08,19,15,10,17.30
2006,08,19,15,11,17.30
2006,08,19,15,12,17.30
2006,08,19,15,13,17.30
2006,08,19,15,14,17.30
2006,08,19,15,15,17.30
2006,08,19,15,16,17.30
2006,08,19,15,17,17.30
2006,08,19,15,18,17.30
2006,08,19,15,19,17.90
2006,08,19,15,20,17.90
2006,08,19,15,21,17.90
2006,08,19,15,23,17.90
2006,08,19,15,24,17.90
2006,08,19,15,25,17.90
2006,08,19,15,26,17.90
2006,08,19,15,27,17.90
2006,08,19,15,28,17.90
2006,08,19,15,29,17.90
2006,08,19,15,30,17.90
2006,08,19,15,31,17.90
2006,08,19,15,32,17.80
2006,08,19,15,33,17.80
2006,08,19,15,34,17.80
2006,08,19,15,35,17.80
2006,08,19,15,36,17.80
2006,08,19,15,37,17.80
2006,08,19,15,38,17.80
2006,08,19,15,39,17.80
2006,08,19,15,40,17.80
2006,08,19,15,42,17.80
2006,08,19,15,43,17.80
2006,08,19,15,44,17.80
2006,08,19,15,45,17.80
2006,08,19,15,46,17.80
2006,08,19,15,47,17.80
2006,08,19,15,48,17.80
2006,08,19,15,49,17.80
2006,08,19,15,50,17.80
2006,08,19,15,51,17.80
2006,08,19,15,52,17.80
2006,08,19,15,53,18.00
2006,08,19,15,54,18.00
2006,08,19,15,55,18.00
2006,08,19,15,56,18.00
2006,08,19,15,57,18.00
2006,08,19,15,58,18.00
2006,08,19,15,59,18.00
2006,08,19,16,00,18.00
2006,08,19,16,01,18.00
2006,08,19,16,02,18.00
2006,08,19,16,03,18.00
2006,08,19,16,05,18.00
2006,08,19,16,06,17.70
2006,08,19,16,07,17.70
2006,08,19,16,08,17.70
2006,08,19,16,09,17.70
2006,08,19,16,10,17.70
2006,08,19,16,11,17.80
2006,08,19,16,12,17.80
2006,08,19,16,13,17.80
2006,08,19,16,15,17.80
2006,08,19,16,16,17.80
2006,08,19,16,17,17.80
2006,08,19,16,18,17.80
2006,08,19,16,19,17.80
2006,08,19,16,20,17.80
2006,08,19,16,21,17.80
2006,08,19,16,22,17.80
2006,08,19,16,23,17.80
2006,08,19,16,24,17.80
2006,08,19,16,25,17.80
2006,08,19,16,26,17.80
2006,08,19,16,27,17.80
2006,08,19,16,29,17.80
2006,08,19,16,30,17.80
2006,08,19,16,31,17.80
2006,08,19,16,32,17.80
2006,08,19,16,33,17.80
2006,08,19,16,34,17.80
2006,08,19,16,36,17.80
2006,08,19,16,37,17.80
2006,08,19,16,38,17.80
2006,08,19,16,39,17.80
2006,08,19,16,40,17.80
2006,08,19,16,41,18.00
2006,08,19,16,42,18.00
2006,08,19,16,43,18.00
2006,08,19,16,44,18.00
2006,08,19,16,45,17.90
2006,08,19,16,46,17.90
2006,08,19,16,47,17.90
2006,08,19,16,48,17.90
2006,08,19,16,49,17.90
2006,08,19,16,50,17.90
2006,08,19,16,51,17.90
2006,08,19,16,52,17.90
2006,08,19,16,53,17.90
2006,08,19,16,54,17.90
2006,08,19,16,55,17.90
2006,08,19,16,56,17.90
2006,08,19,16,57,17.90
2006,08,19,16,58,17.90
2006,08,19,16,59,17.90
2006,08,19,17,00,17.90
2006,08,19,17,01,16.90
2006,08,19,17,02,16.90
2006,08,19,17,03,16.90
2006,08,19,17,04,16.90
2006,08,19,17,05,16.90
2006,08,19,17,06,16.90
2006,08,19,17,07,16.90
2006,08,19,17,08,16.90
2006,08,19,17,09,16.90
2006,08,19,17,10,16.90
2006,08,19,17,11,16.90
2006,08,19,17,12,16.90
2006,08,19,17,13,16.90
2006,08,19,17,14,16.00
2006,08,19,17,15,16.00
2006,08,19,17,16,16.00
2006,08,19,17,17,16.00
2006,08,19,17,18,16.00
2006,08,19,17,19,16.10
2006,08,19,17,20,16.10
2006,08,19,17,21,16.10
2006,08,19,17,22,16.10
2006,08,19,17,23,16.10
2006,08,19,17,24,16.10
2006,08,19,17,25,16.10
2006,08,19,17,26,16.10
2006,08,19,17,27,16.10
2006,08,19,17,28,16.10
2006,08,19,17,29,16.10
2006,08,19,17,30,16.10
2006,08,19,17,31,16.10
2006,08,19,17,32,16.10
2006,08,19,17,33,16.10
2006,08,19,17,34,15.80
2006,08,19,17,35,15.80
2006,08,19,17,36,15.80
2006,08,19,17,37,15.80
2006,08,19,17,39,15.80
2006,08,19,17,40,15.80
2006,08,19,17,41,15.80
2006,08,19,17,43,15.80
2006,08,19,17,44,15.80
2006,08,19,17,45,15.80
2006,08,19,17,46,15.80
2006,08,19,17,47,15.80
2006,08,19,17,48,15.80
2006,08,19,17,49,14.40
2006,08,19,17,50,14.40
2006,08,19,17,51,14.40
2006,08,19,17,52,14.40
2006,08,19,17,53,14.20
2006,08,19,17,54,14.20
2006,08,19,17,55,14.20
2006,08,19,17,56,14.20
2006,08,19,17,57,14.20
2006,08,19,17,58,14.20
2006,08,19,17,59,14.20
2006,08,19,18,00,14.20
2006,08,19,18,02,14.20
2006,08,19,18,03,14.20
2006,08,19,18,04,14.20
2006,08,19,18,06,14.20
2006,08,19,18,07,14.20
2006,08,19,18,08,14.20
2006,08,19,18,09,14.40
2006,08,19,18,10,14.40
2006,08,19,18,11,14.40
2006,08,19,18,12,14.40
2006,08,19,18,13,14.40
2006,08,19,18,14,14.40
2006,08,19,18,15,14.40
2006,08,19,18,16,14.40
2006,08,19,18,17,14.40
2006,08,19,18,18,14.40
2006,08,19,18,19,14.40
2006,08,19,18,20,14.40
2006,08,19,18,21,14.40
2006,08,19,18,23,14.10
2006,08,19,18,24,14.10
2006,08,19,18,25,14.10
2006,08,19,18,26,14.10
2006,08,19,18,27,14.10
2006,08,19,18,28,14.10
2006,08,19,18,29,14.10
2006,08,19,18,30,14.10
2006,08,19,18,32,14.10
2006,08,19,18,33,14.10
2006,08,19,18,35,14.10
2006,08,19,18,36,14.10
2006,08,19,18,37,14.10
2006,08,19,18,38,14.10
2006,08,19,18,39,14.10
2006,08,19,18,41,14.10
2006,08,19,18,42,14.10
2006,08,19,18,43,14.10
2006,08,19,18,44,14.10